Location: Prairie State College
(41.5244°N, 87.6382°W)
Time: 02:00:49
(UTC-06:00)

ISS - All Passes

Search period start: 20 January 2017 00:00
Search period end: 30 January 2017 00:00
Orbit: 399 x 410 km, 51.6° (Epoch: 20 January)

Date Brightness Start Highest point End Pass type
(mag) Time Alt. Az. Time Alt. Az. Time Alt. Az.
20 Jan - 00:48:41 10° NW 00:50:43 15° N 00:52:43 10° NNE night (unlit)
20 Jan - 02:26:00 10° NNW 02:28:10 16° NNE 02:30:19 10° NE night (unlit)
20 Jan - 04:02:03 10° NW 04:05:13 50° NNE 04:08:24 10° ESE visible
20 Jan - 05:39:05 10° W 05:41:27 19° SW 05:43:49 10° S visible
20 Jan - 20:43:33 10° SSE 20:45:12 13° SE 20:46:52 10° E night (unlit)
20 Jan - 22:18:04 10° WSW 22:21:18 70° NW 22:24:33 10° NE night (unlit)
20 Jan - 23:55:53 10° WNW 23:58:14 18° NNW 00:00:35 10° NNE night (unlit)
21 Jan - 01:33:47 10° NNW 01:35:40 14° N 01:37:33 10° NE night (unlit)
21 Jan - 03:09:58 10° NW 03:12:55 31° NNE 03:15:51 10° E night (unlit)
21 Jan - 04:46:25 10° WNW 04:49:25 35° SW 04:52:24 10° SSE visible
21 Jan - 21:25:53 10° SW 21:29:06 62° SE 21:32:20 10° ENE night (unlit)
21 Jan - 23:03:06 10° WNW 23:05:48 23° NNW 23:08:30 10° NE night (unlit)
22 Jan - 00:41:22 10° NW 00:43:09 14° N 00:44:56 10° NNE night (unlit)
22 Jan - 02:17:53 10° NW 02:20:31 22° NNE 02:23:09 10° ENE night (unlit)
22 Jan - 03:54:02 10° WNW 03:57:17 70° SW 04:00:30 10° SE night (unlit)
22 Jan - 20:34:03 10° SSW 20:36:58 31° SE 20:39:54 10° ENE night (unlit)
22 Jan - 22:10:24 10° W 22:13:25 34° NNW 22:16:26 10° NE night (unlit)
22 Jan - 23:48:41 10° NW 23:50:37 15° N 23:52:33 10° NNE night (unlit)
23 Jan - 01:25:47 10° NNW 01:28:04 17° NNE 01:30:21 10° ENE night (unlit)
23 Jan - 03:01:49 10° NW 03:05:02 62° NNE 03:08:15 10° ESE night (unlit)
23 Jan - 04:39:14 10° W 04:41:11 15° SW 04:43:07 10° SSW night (unlit)
23 Jan - 19:42:43 10° S 19:44:54 17° SE 19:47:05 10° E night (unlit)
23 Jan - 21:17:53 10° WSW 21:21:05 56° NNW 21:24:18 10° NE night (unlit)
23 Jan - 22:55:52 10° NW 22:58:06 17° NNW 23:00:20 10° NNE night (unlit)
24 Jan - 00:33:35 10° NNW 00:35:33 15° N 00:37:30 10° NE night (unlit)
24 Jan - 02:09:40 10° NW 02:12:44 36° NNE 02:15:46 10° E night (unlit)
24 Jan - 03:46:17 10° WNW 03:49:07 28° SW 03:51:57 10° SSE night (unlit)
24 Jan - 20:25:34 10° SW 20:28:50 79° SE 20:32:05 10° ENE night (unlit)
24 Jan - 22:03:01 10° WNW 22:05:37 21° NNW 22:08:12 10° NNE night (unlit)
24 Jan - 23:41:11 10° NNW 23:43:00 14° N 23:44:47 10° NE night (unlit)
25 Jan - 01:17:34 10° NW 01:20:19 25° NNE 01:23:04 10° E night (unlit)
25 Jan - 02:53:47 10° WNW 02:56:59 55° SW 03:00:09 10° SE night (unlit)
25 Jan - 19:33:33 10° SSW 19:36:38 39° SE 19:39:42 10° ENE visible
25 Jan - 21:10:15 10° W 21:13:10 29° NNW 21:16:05 10° NE night (unlit)
25 Jan - 22:48:33 10° NW 22:50:25 14° N 22:52:16 10° NNE night (unlit)
26 Jan - 00:25:26 10° NNW 00:27:51 19° NNE 00:30:14 10° ENE night (unlit)
26 Jan - 02:01:29 10° NW 02:04:45 77° NE 02:07:58 10° ESE night (unlit)
26 Jan - 03:39:29 10° WSW 03:40:47 12° SW 03:42:04 10° SSW night (unlit)
26 Jan - 18:41:58 10° S 18:44:29 21° SE 18:47:01 10° E visible
26 Jan - 20:17:37 10° WSW 20:20:46 46° NNW 20:23:56 10° NE visible
26 Jan - 21:55:44 10° NW 21:57:51 16° N 21:59:58 10° NNE night (unlit)
26 Jan - 23:33:14 10° NNW 23:35:18 16° N 23:37:22 10° NE night (unlit)
27 Jan - 01:09:17 10° NW 01:12:24 43° NNE 01:15:31 10° ESE night (unlit)
27 Jan - 02:46:06 10° W 02:48:43 22° SW 02:51:19 10° S night (unlit)
27 Jan - 17:51:26 10° SSE 17:52:25 11° SE 17:53:25 10° ESE visible
27 Jan - 19:25:10 10° SW 19:28:26 83° NW 19:31:43 10° NE visible
27 Jan - 21:02:50 10° WNW 21:05:18 19° NNW 21:07:46 10° NNE night (unlit)
27 Jan - 22:40:52 10° NNW 22:42:43 14° N 22:44:33 10° NE night (unlit)
28 Jan - 00:17:07 10° NW 00:20:00 28° NNE 00:22:51 10° E night (unlit)
28 Jan - 01:53:27 10° WNW 01:56:34 43° SW 01:59:39 10° SSE night (unlit)
28 Jan - 18:32:59 10° SW 18:36:10 50° SE 18:39:21 10° ENE visible
28 Jan - 20:09:59 10° W 20:12:47 26° NNW 20:15:37 10° NE visible
28 Jan - 21:48:16 10° NW 21:50:06 14° N 21:51:55 10° NNE night (unlit)
28 Jan - 23:24:57 10° NNW 23:27:29 20° NNE 23:30:02 10° ENE night (unlit)
29 Jan - 01:01:03 10° NW 01:04:19 85° SSW 01:07:33 10° SE night (unlit)
29 Jan - 17:41:11 10° SSW 17:43:58 26° SE 17:46:46 10° ENE visible
29 Jan - 19:17:15 10° W 19:20:21 39° NNW 19:23:26 10° NE visible
29 Jan - 20:55:28 10° NW 20:57:29 15° N 20:59:30 10° NNE night (unlit)
29 Jan - 22:32:45 10° NNW 22:34:56 16° NNE 22:37:07 10° NE night (unlit)
